Location: *
(45.1961°N, 1.9694°E)
Time: 12:24:02
(UTC+00:00)

Cosmos 1300 Rocket - Pass Details

Date: 25 August 2019
Orbit: 601 x 627 km, 82.5° (Epoch: 16 September)

Event Time Altitude Azimuth Distance (km) Brightness Sun altitude
Exits shadow 21:44:59 50° 6° (N) 784 4.2 -27.0°
Drops below altitude 10° 21:48:16 10° 8° (N) 1,977 6.7 -27.4°
Sets 21:50:29 0° 9° (N) 2,882 7.6 -27.6°
